Location: Eindhoven
(51.4416°N, 5.4697°E)
Time: 04:33:43
(UTC+01:00)

deb Explorer IX - Pass Details

Date: 20 November 2019
Orbit: 545 x 1105 km, 38.8° (Epoch: 06 December)

Event Time Altitude Azimuth Distance (km) Brightness Sun altitude
Rises 02:49:35 0° 239° (WSW) 3,645 - -47.2°
Reaches altitude 10° 02:52:55 10° 225° (SW) 2,598 - -46.8°
Maximum altitude 02:57:31 22° 177° (S) 1,737 - -46.2°
Drops below altitude 10° 03:01:40 10° 127° (SE) 2,297 - -45.7°
Sets 03:04:24 0° 112° (ESE) 3,121 - -45.3°
